Date String (YYYY-MM-DD hh:mm:ss) UTC,Instrument flags,Ambient pressure (hPa),Sample flow (lpm),Bypass flow (lpm),Sample temperature (°C),Ambient temperature (°C),ASC tube jacket temperature (°C),LED temperature (°C),Box temperature (°C),Sample RH (%),Span deviation,Mass concentration (μg/m³),Mass concentration (μg/m³),Mass concentration (μg/m³)
DateTimeUTC,F1_M11,P_M11,Q1_M11,Q2_M11,T1_M11,T2_M11,T3_M11,T4_M11,T5_M11,U1_M11,ZSPAN_M11,X0_M11,X2_M11,X1_M11
2022-10-22 01:00:00,,0816.5,5.00,0.00,29.7,28.2,00.0,38.5,31.5,06.7,0000.0,0007.92,0002.66,0001.86
2022-10-22 01:01:00,,0816.5,5.00,0.00,29.7,28.3,00.0,38.5,31.6,06.7,0000.0,0008.04,0002.66,0001.87
2022-10-22 01:02:00,,0816.5,4.99,0.00,29.7,28.3,00.0,38.5,31.6,06.7,0000.0,0008.04,0002.63,0001.86
2022-10-22 01:03:00,,0816.5,5.00,0.00,29.7,28.3,00.0,38.5,31.6,06.7,0000.0,0007.50,0002.62,0001.85
2022-10-22 01:04:00,,0816.5,5.00,0.00,29.7,28.4,00.0,38.5,31.7,06.6,0000.0,0008.04,0002.61,0001.85
2022-10-22 01:05:00,,0816.5,5.00,0.00,29.8,28.4,00.0,38.5,31.7,06.6,0000.0,0008.07,0002.60,0001.86
2022-10-22 01:06:00,,0816.4,5.00,0.00,29.8,28.4,00.0,38.5,31.7,06.6,0000.0,0007.86,0002.56,0001.86
2022-10-22 01:07:00,,0816.5,5.01,0.00,29.8,28.4,00.0,38.6,31.7,06.6,0000.0,0007.62,0002.47,0001.87
2022-10-22 01:08:00,,0816.5,5.01,0.00,29.8,28.4,00.0,38.6,31.7,06.6,0000.0,0007.97,0002.46,0001.87
2022-10-22 01:09:00,,0816.4,5.00,0.00,29.8,28.5,00.0,38.6,31.7,06.6,0000.0,0008.07,0002.48,0001.88
2022-10-22 01:10:00,,0816.4,4.99,0.00,29.8,28.5,00.0,38.6,31.7,06.6,0000.0,0008.00,0002.48,0001.90
2022-10-22 01:11:00,,0816.5,4.99,0.00,29.8,28.5,00.0,38.6,31.7,06.6,0000.0,0008.03,0002.47,0001.91
2022-10-22 01:12:00,,0816.5,5.00,0.00,29.9,28.5,00.0,38.6,31.7,06.6,0000.0,0007.92,0002.47,0001.92
2022-10-22 01:13:00,,0816.5,4.99,0.00,29.9,28.6,00.0,38.7,31.8,06.6,0000.0,0007.96,0002.50,0001.94
2022-10-22 01:14:00,,0816.5,5.00,0.00,29.9,28.6,00.0,38.7,31.8,06.6,0000.0,0008.06,0002.48,0001.96
2022-10-22 01:15:00,,0816.5,5.00,0.00,29.9,28.6,00.0,38.7,31.9,06.6,0000.0,0007.00,0002.48,0001.98
2022-10-22 01:16:00,,0816.4,5.00,0.00,30.0,28.7,00.0,38.7,31.9,06.5,0000.0,0005.78,0002.47,0001.97
2022-10-22 01:17:00,,0816.5,5.01,0.00,30.0,28.7,00.0,38.7,31.9,06.5,0000.0,0005.80,0002.50,0001.97
2022-10-22 01:18:00,,0816.5,5.00,0.00,30.0,28.3,00.0,38.7,31.8,06.5,0000.0,0005.93,0002.56,0001.98
2022-10-22 01:19:00,,0816.5,5.01,0.00,29.9,26.8,00.0,38.7,31.7,06.5,0000.0,0005.60,0002.69,0002.00
2022-10-22 01:20:00,,0816.7,5.01,0.00,29.9,26.3,00.0,38.6,31.6,06.5,0000.0,0005.57,0002.74,0002.01
2022-10-22 01:21:00,,0816.5,4.99,0.00,29.8,26.5,00.0,38.6,31.4,06.5,0000.0,0005.73,0002.74,0002.01
2022-10-22 01:22:00,,0816.5,4.99,0.00,29.7,26.7,00.0,38.6,31.4,06.5,0000.0,0005.41,0002.73,0002.01
2022-10-22 01:23:00,,0816.5,5.00,0.00,29.7,27.1,00.0,38.5,31.4,06.6,0000.0,0006.53,0002.76,0002.00
2022-10-22 01:24:00,,0816.7,4.99,0.00,29.7,27.3,00.0,38.5,31.4,06.6,0000.0,0006.58,0002.80,0002.00
2022-10-22 01:25:00,,0816.6,5.00,0.00,29.7,27.6,00.0,38.5,31.4,06.6,0000.0,0006.46,0002.83,0002.00
2022-10-22 01:26:00,,0816.5,5.00,0.00,29.6,27.7,00.0,38.5,31.4,06.7,0000.0,0006.56,0002.83,0001.99
2022-10-22 01:27:00,,0816.7,4.99,0.00,29.7,27.9,00.0,38.5,31.5,06.6,0000.0,0006.71,0002.84,0001.99
2022-10-22 01:28:00,,0816.7,5.01,0.00,29.7,28.0,00.0,38.5,31.5,06.6,0000.0,0006.80,0002.87,0002.00
2022-10-22 01:29:00,,0816.8,5.00,0.00,29.7,28.1,00.0,38.5,31.5,06.6,0000.0,0006.79,0002.86,0001.99
2022-10-22 01:30:00,,0816.7,5.00,0.00,29.7,28.2,00.0,38.5,31.5,06.6,0000.0,0006.45,0002.75,0001.98
2022-10-22 01:31:00,,0816.7,5.00,0.00,29.7,28.2,00.0,38.5,31.6,06.6,0000.0,0006.02,0002.67,0001.96
2022-10-22 01:32:00,,0816.5,5.00,0.00,29.7,28.3,00.0,38.5,31.6,06.7,0000.0,0005.92,0002.61,0001.95
2022-10-22 01:33:00,,0816.6,5.00,0.00,29.7,28.4,00.0,38.5,31.6,06.7,0000.0,0006.64,0002.58,0001.94
2022-10-22 01:34:00,,0816.6,5.00,0.00,29.7,28.4,00.0,38.5,31.6,06.6,0000.0,0005.70,0002.53,0001.93
2022-10-22 01:35:00,,0816.6,5.00,0.00,29.8,28.5,00.0,38.6,31.7,06.6,0000.0,0005.52,0002.50,0001.93
2022-10-22 01:36:00,,0816.6,5.00,0.00,29.8,28.5,00.0,38.6,31.7,06.6,0000.0,0005.28,0002.45,0001.93
2022-10-22 01:37:00,,0816.6,5.00,0.00,29.8,28.5,00.0,38.6,31.7,06.6,0000.0,0005.06,0002.44,0001.93
2022-10-22 01:38:00,,0816.6,5.00,0.00,29.8,28.6,00.0,38.6,31.7,06.6,0000.0,0004.91,0002.44,0001.93
2022-10-22 01:39:00,,0816.7,5.00,0.00,29.8,28.6,00.0,38.6,31.8,06.4,0000.0,0004.82,0002.43,0001.94
2022-10-22 01:40:00,,0816.7,4.99,0.00,29.9,28.6,00.0,38.6,31.7,06.5,0000.0,0005.13,0002.43,0001.96
2022-10-22 01:41:00,,0816.7,5.00,0.00,29.9,28.6,00.0,38.6,31.8,06.6,0000.0,0005.26,0002.48,0001.97
2022-10-22 01:42:00,,0816.6,5.00,0.00,29.9,28.7,00.0,38.7,31.8,06.6,0000.0,0006.18,0002.55,0001.97
2022-10-22 01:43:00,,0816.5,5.01,0.00,29.9,28.7,00.0,38.7,31.8,06.6,0000.0,0006.68,0002.57,0001.97
2022-10-22 01:44:00,,0816.5,5.00,0.00,29.9,28.7,00.0,38.7,31.8,06.4,0000.0,0006.73,0002.60,0001.98
2022-10-22 01:45:00,,0816.5,5.00,0.00,30.0,28.7,00.0,38.7,31.9,06.4,0000.0,0006.68,0002.60,0001.99
2022-10-22 01:46:00,,0816.5,5.00,0.00,30.0,28.7,00.0,38.7,31.9,06.4,0000.0,0006.48,0002.57,0002.00
2022-10-22 01:47:00,,0816.5,5.01,0.00,30.0,28.7,00.0,38.7,31.9,06.4,0000.0,0006.52,0002.56,0002.00
2022-10-22 01:48:00,,0816.4,5.00,0.00,30.0,28.1,00.0,38.7,31.8,06.4,0000.0,0006.67,0002.61,0002.01
2022-10-22 01:49:00,,0816.4,4.98,0.00,30.0,26.6,00.0,38.7,31.7,06.4,0000.0,0006.69,0002.61,0002.03
2022-10-22 01:50:00,,0816.5,5.00,0.00,29.9,26.3,00.0,38.6,31.7,06.3,0000.0,0006.68,0002.61,0002.02
2022-10-22 01:51:00,,0816.5,5.02,0.00,29.8,26.5,00.0,38.6,31.5,06.4,0000.0,0006.39,0002.57,0002.02
2022-10-22 01:52:00,,0816.5,4.99,0.00,29.8,26.8,00.0,38.6,31.4,06.4,0000.0,0006.13,0002.53,0002.00
2022-10-22 01:53:00,,0816.5,4.99,0.00,29.7,27.1,00.0,38.6,31.4,06.4,0000.0,0005.65,0002.50,0002.01
2022-10-22 01:54:00,,0816.5,5.00,0.00,29.7,27.4,00.0,38.6,31.5,06.5,0000.0,0005.13,0002.51,0002.03
2022-10-22 01:55:00,,0816.4,5.00,0.00,29.7,27.6,00.0,38.5,31.5,06.4,0000.0,0004.94,0002.54,0002.05
2022-10-22 01:56:00,,0816.4,5.01,0.00,29.7,27.7,00.0,38.5,31.4,06.4,0000.0,0005.26,0002.56,0002.05
2022-10-22 01:57:00,,0816.5,5.00,0.00,29.7,27.9,00.0,38.5,31.4,06.4,0000.0,0005.49,0002.59,0002.06
2022-10-22 01:58:00,,0816.4,5.00,0.00,29.7,28.0,00.0,38.5,31.5,06.5,0000.0,0005.77,0002.60,0002.06
2022-10-22 01:59:00,,0816.4,5.01,0.00,29.7,28.0,00.0,38.5,31.5,06.5,0000.0,0005.80,0002.63,0002.08
